Regional Weather Roundup
Issued by NWS

Home | Current Version | Previous Version | Graphics & Text | Print | Product List | Glossary On
Versions: 1 2 3 4 5 6 7 8 9 10 11 12 13 14 15 16 17 18 19 20 21 22 23 24 25 26 27 28 29 30 31 32 33 34 35 36 37 38 39 40 41 42 43 44 45 46 47 48 49 50
000
ASUS45 KBOU 060107
RWRCO

WEATHER ROUNDUP FOR COLORADO
NATIONAL WEATHER SERVICE DENVER/BOULDER CO
600 PM MST THU MAR 05 2015

NOTE: "FAIR" INDICATES FEW OR NO CLOUDS BELOW 12000 FEET WITH NO
SIGNIFICANT WEATHER AND/OR OBSTRUCTIONS TO VISIBILITY.

COZ001>005-013-030-031-060200-
...NORTHWEST COLORADO...

CITY           SKY/WX    TMP DP  RH WIND       PRES   REMARKS
CRAIG          PTCLDY    31  17  56 SE6       30.35R WCI  25
HAYDEN         PTCLDY    27  10  50 SE5       30.34S WCI  21
MEEKER         PTCLDY    38  17  42 S9        30.33S
MOUNT WERNER   NOT AVBL
STEAMBOAT SPGS PTCLDY    27   9  47 CALM      30.35R
WALDEN         CLEAR     23   9  54 S9        30.30R WCI  13
$$

COZ006>008-011-060200-
...WEST CENTRAL VALLEYS...

CITY           SKY/WX    TMP DP  RH WIND       PRES   REMARKS
GRAND JUNCTION CLEAR     40  17  39 NW6       30.37R
MONTROSE       CLEAR     41  19  41 SW5       30.38R
EAGLE          CLEAR     37  14  38 W8        30.36R
RIFLE          CLEAR     39  17  41 W8        30.36S
DELTA          CLEAR     45  18  34 SW8       30.37R
NUCLA          CLEAR     43  16  33 CALM      30.40R
$$

COZ017>023-064>068-060200-
...SOUTHWEST COLORADO...

CITY           SKY/WX    TMP DP  RH WIND       PRES   REMARKS
DURANGO        CLEAR     40  12  32 VRB3      30.32R
CORTEZ         CLEAR     41  24  51 W7        30.35S
PAGOSA SPRINGS CLEAR     32   8  36 CALM      30.35R
TELLURIDE      CLEAR     30  -3  24 W9        30.38R WCI  21
WOLF CREEK PAS CLEAR     12   9  85 SW14      30.37R WCI  -3
$$

COZ009-010-012-014-032>034-037-058>063-060200-
...CENTRAL COLORADO...

CITY           SKY/WX    TMP DP  RH WIND       PRES   REMARKS
ASPEN          PTCLDY    30  12  47 W9        30.33S WCI  22
BUENA VISTA    PTCLDY    33   7  33 NW14G20   30.27R WCI  23
COPPER MTN     PTCLDY    18   5  57 W9        30.31S WCI   6
BERTHOUD PASS  NOT AVBL
COTTONWOOD PAS PTCLDY    32   0  25 W16G28    30.28R WCI  21
GUNNISON       PTCLDY    23   7  50 N6        30.38S WCI  16
KREMMLING      PTCLDY    27  12  54 CALM      30.35R
LEADVILLE      PTCLDY    21   3  45 N13G20    30.30R WCI   9
SALIDA         PTCLDY    37   7  28 W15       30.34R
SUNLIGHT       PTCLDY    19  14  79 CALM        N/A
WILKERSON PASS PTCLDY    21   1  42 NW9       30.28S WCI  11
$$

COZ069>075-060200-
...SAN LUIS VALLEY/SANGRE DE CRISTO MOUNTAINS...

CITY           SKY/WX    TMP DP  RH WIND       PRES   REMARKS
ALAMOSA        PTCLDY    30  14  51 W6        30.31R WCI  24
LA VETA PASS   CLEAR     23   3  42 SW12G22   30.25S WCI  12
SAGUACHE       PTCLDY    32  12  43 SE10G16   30.31S WCI  24
$$

COZ035-036-038>040-060200-
...NORTHERN COLORADO FRONT RANGE...

CITY           SKY/WX    TMP DP  RH WIND       PRES   REMARKS
DENVER INTL AP MOCLDY    31  18  58 W3        30.22R
DMNS CITY PARK   N/A     31  16  54 N3        30.24R
AURORA         PTCLDY    30  20  67 E5        30.23R WCI  25
FRONT RANGE AP MOCLDY    30  23  74 NW6       30.23R WCI  24
ERIE MUNI ARPT PTCLDY    26  15  61 CALM      30.24R
BOULDER MUN AP PTCLDY    30  12  47 CALM      30.23R
CENTENNIAL     MOCLDY    33  21  61 CALM      30.21R
BROOMFIELD     MOCLDY    28  12  50 NW5       30.23R WCI  23
FORT COLLINS   PTCLDY    34  12  40 CALM      30.25S
LONGMONT       PTCLDY    28  16  61 CALM      30.26R
$$

COZ041-046-047-076>085-087-088-060200-
...PIKES PEAK/PALMER DIVIDE AND SOUTHERN FOOTHILLS...

CITY           SKY/WX    TMP DP  RH WIND       PRES   REMARKS
COLO. SPRINGS  MOCLDY    32  16  51 CALM      30.24R
A. F. ACADEMY  CLEAR     31  17  56 S6        30.22R WCI  25
ELLICOTT       NOT AVBL
FALCON         CLEAR     29  13  50 CALM      30.24R
FORT CARSON    CLEAR     32  17  54 W1        30.23R
LIMON          CLEAR     18  15  88 CALM      30.24R
MONUMENT HILL  CLEAR     32   9  37 SW3       30.21R
TRINIDAD       CLEAR     43  19  38 S5        30.21R
$$

COZ042>045-048>051-090-091-060200-
...NORTHEAST COLORADO...

CITY           SKY/WX    TMP DP  RH WIND       PRES   REMARKS
GREELEY ARPT   PTCLDY    32  18  55 W8        30.23R WCI  25
AKRON          PTCLDY    37   8  30 N3        30.23R
BURLINGTON     MOCLDY    35  17  47 SW5       30.26R WCI  31
WRAY           PTCLDY    35  15  44 W8        30.24R WCI  29
STERLING       PTCLDY    37  19  48 CALM      30.22R
HOLYOKE        PTCLDY    41  14  33 NW5       30.23R
FORT MORGAN    PTCLDY    38   7  27 CALM      30.24R
$$

COZ086-089-092>099-060200-
...SOUTHEAST COLORADO...

CITY           SKY/WX    TMP DP  RH WIND       PRES   REMARKS
PUEBLO         CLEAR     39  25  57 E8        30.22R
LA JUNTA       CLEAR     38  24  57 NE7       30.22S
LAMAR          CLEAR     37  18  46 S9        30.23S
SPRINGFIELD      N/A     35  20  54 S10       30.25S WCI  27
$$


USA.gov is the U.S. government's official web portal to all federal, state and local government web resources and services.